| time (UTC) | temp F | wind direction | speed MPH | gust MPH | rain 1hr in | rain 24hr in | rain mn in | humidity % | barometer mb |
| 20260906031407 | 74 | 10 | 1.0 | 3.0 | 0.00 | 0.00 | 0.00 | 89 | 1019.3 |
| 20260906030907 | 74 | 355 | 1.0 | 3.0 | 0.00 | 0.00 | 0.00 | 89 | 1019.3 |
| 20260906030406 | 74 | 22 | 1.0 | 3.0 | 0.00 | 0.00 | 0.00 | 89 | 1019.3 |
| 20260906024907 | 74 | 31 | 1.0 | 2.0 | 0.00 | 0.00 | 0.00 | 90 | 1019.2 |
| 20260906024406 | 74 | 4 | 1.0 | 3.0 | 0.00 | 0.00 | 0.00 | 90 | 1019.1 |
| 20260906023906 | 74 | 10 | 1.0 | 2.0 | 0.00 | 0.00 | 0.00 | 89 | 1019.2 |
| 20260906023406 | 74 | 25 | 1.0 | 2.0 | 0.00 | 0.00 | 0.00 | 89 | 1019.1 |
| 20260906021906 | 74 | 37 | 1.0 | 2.0 | 0.00 | 0.00 | 0.00 | 89 | 1019.2 |
| 20260906021406 | 74 | 53 | 1.0 | 2.0 | 0.00 | 0.00 | 0.00 | 89 | 1019.3 |
| 20260906020906 | 74 | 30 | 0.0 | 0.0 | 0.00 | 0.00 | 0.00 | 89 | 1019.3 |
| 20260906020406 | 74 | 30 | 0.0 | 2.0 | 0.00 | 0.00 | 0.00 | 89 | 1019.3 |
| 20260906014406 | 74 | 26 | 2.0 | 2.0 | 0.00 | 0.00 | 0.00 | 89 | 1019.4 |
| 20260906013906 | 74 | 24 | 1.0 | 2.0 | 0.00 | 0.00 | 0.00 | 89 | 1019.4 |
| 20260906013406 | 74 | 22 | 2.0 | 3.0 | 0.00 | 0.00 | 0.00 | 89 | 1019.4 |
| 20260906011906 | 74 | 16 | 1.0 | 3.0 | 0.00 | 0.00 | 0.00 | 89 | 1019.3 |
| 20260906004906 | 74 | 16 | 1.0 | 2.0 | 0.00 | 0.00 | 0.00 | 88 | 1019.5 |
| 20260906004406 | 74 | 31 | 1.0 | 2.0 | 0.00 | 0.00 | 0.00 | 88 | 1019.4 |
| 20260906003907 | 74 | 27 | 1.0 | 2.0 | 0.00 | 0.00 | 0.00 | 88 | 1019.2 |
| 20260906003406 | 74 | 24 | 1.0 | 2.0 | 0.00 | 0.00 | 0.00 | 88 | 1019.4 |
| 20260906001905 | 75 | 33 | 1.0 | 2.0 | 0.00 | 0.00 | 0.00 | 88 | 1019.3 |
| 20260906001405 | 75 | 33 | 1.0 | 2.0 | 0.00 | 0.00 | 0.00 | 88 | 1019.4 |
| 20260906000906 | 75 | 31 | 1.0 | 2.0 | 0.00 | 0.00 | 0.00 | 88 | 1019.4 |
| 20260906000406 | 75 | 31 | 1.0 | 2.0 | 0.00 | 0.00 | 0.00 | 88 | 1019.4 |
| 20260905234906 | 75 | 30 | 1.0 | 2.0 | 0.00 | 0.00 | 0.00 | 87 | 1019.4 |
| 20260905234406 | 75 | 16 | 1.0 | 2.0 | 0.00 | 0.00 | 0.00 | 87 | 1019.4 |
| 20260905233906 | 75 | 13 | 1.0 | 2.0 | 0.00 | 0.00 | 0.00 | 87 | 1019.3 |
| 20260905233405 | 75 | 30 | 1.0 | 2.0 | 0.00 | 0.00 | 0.00 | 87 | 1019.5 |
| 20260905231906 | 75 | 32 | 1.0 | 2.0 | 0.00 | 0.00 | 0.00 | 86 | 1019.5 |
| 20260905231405 | 75 | 25 | 1.0 | 2.0 | 0.00 | 0.00 | 0.00 | 86 | 1019.6 |
| 20260905223906 | 75 | 14 | 1.0 | 2.0 | 0.00 | 0.00 | 0.00 | 86 | 1019.6 |
| 20260905223407 | 75 | 9 | 1.0 | 3.0 | 0.00 | 0.00 | 0.00 | 86 | 1019.7 |
| 20260905221406 | 76 | 1 | 1.0 | 3.0 | 0.00 | 0.00 | 0.00 | 86 | 1019.6 |
| 20260905220905 | 76 | 27 | 0.0 | 0.0 | 0.00 | 0.00 | 0.00 | 85 | 1019.7 |
| 20260905220405 | 76 | 349 | 1.0 | 3.0 | 0.00 | 0.00 | 0.00 | 85 | 1019.7 |
| 20260905214905 | 76 | 11 | 0.0 | 2.0 | 0.00 | 0.00 | 0.00 | 85 | 1019.6 |
| 20260905214406 | 76 | 357 | 1.0 | 2.0 | 0.00 | 0.00 | 0.00 | 85 | 1019.7 |
| 20260905213406 | 76 | 344 | 0.0 | 2.0 | 0.00 | 0.00 | 0.00 | 85 | 1019.4 |
| 20260905211905 | 76 | 353 | 0.0 | 3.0 | 0.00 | 0.00 | 0.00 | 85 | 1019.4 |
| 20260905211405 | 76 | 323 | 0.0 | 2.0 | 0.00 | 0.00 | 0.00 | 85 | 1019.3 |
| 20260905210905 | 76 | 338 | 0.0 | 2.0 | 0.00 | 0.00 | 0.00 | 85 | 1019.3 |
| 20260905210406 | 76 | 325 | 1.0 | 3.0 | 0.00 | 0.00 | 0.00 | 85 | 1019.2 |
| 20260905204406 | 76 | 10 | 0.0 | 1.0 | 0.00 | 0.00 | 0.00 | 85 | 1019.3 |
| 20260905203906 | 76 | 24 | 1.0 | 2.0 | 0.00 | 0.00 | 0.00 | 84 | 1019.3 |
| 20260905203405 | 76 | 42 | 1.0 | 2.0 | 0.00 | 0.00 | 0.00 | 84 | 1019.1 |
| 20260905201905 | 76 | 32 | 1.0 | 2.0 | 0.00 | 0.00 | 0.00 | 84 | 1019.1 |
| 20260905201406 | 76 | 32 | 0.0 | 2.0 | 0.00 | 0.00 | 0.00 | 84 | 1019.1 |
| 20260905200905 | 76 | 32 | 0.0 | 1.0 | 0.00 | 0.00 | 0.00 | 83 | 1019.0 |
| 20260905200406 | 76 | 32 | 1.0 | 2.0 | 0.00 | 0.00 | 0.00 | 83 | 1019.1 |
| 20260905194905 | 77 | 32 | 1.0 | 2.0 | 0.00 | 0.00 | 0.00 | 83 | 1019.0 |
| 20260905194405 | 77 | 28 | 1.0 | 2.0 | 0.00 | 0.00 | 0.00 | 82 | 1019.1 |
| 20260905193406 | 77 | 355 | 1.0 | 3.0 | 0.00 | 0.00 | 0.00 | 82 | 1019.1 |
| 20260905191906 | 77 | 64 | 0.0 | 2.0 | 0.00 | 0.00 | 0.00 | 81 | 1019.1 |
| 20260905191405 | 77 | 65 | 0.0 | 0.0 | 0.00 | 0.00 | 0.00 | 81 | 1019.1 |
| 20260905190907 | 77 | 65 | 0.0 | 0.0 | 0.00 | 0.00 | 0.00 | 81 | 1019.0 |
| 20260905184405 | 78 | 38 | 0.0 | 0.0 | 0.00 | 0.00 | 0.00 | 80 | 1018.7 |
| 20260905181905 | 79 | 71 | 0.0 | 1.0 | 0.00 | 0.00 | 0.00 | 79 | 1018.3 |
| 20260905181406 | 79 | 71 | 0.0 | 2.0 | 0.00 | 0.00 | 0.00 | 79 | 1018.3 |
| 20260905180906 | 79 | 87 | 0.0 | 0.0 | 0.00 | 0.00 | 0.00 | 79 | 1018.2 |
| 20260905180406 | 79 | 41 | 0.0 | 1.0 | 0.00 | 0.00 | 0.00 | 79 | 1018.2 |
| 20260905174905 | 80 | 346 | 1.0 | 5.0 | 0.00 | 0.00 | 0.00 | 78 | 1018.2 |
| 20260905173905 | 80 | 162 | 1.0 | 2.0 | 0.00 | 0.00 | 0.00 | 78 | 1018.1 |
| 20260905171906 | 81 | 150 | 2.0 | 3.0 | 0.00 | 0.00 | 0.00 | 76 | 1018.1 |
| 20260905171405 | 82 | 118 | 2.0 | 3.0 | 0.00 | 0.00 | 0.00 | 76 | 1018.1 |
| 20260905170905 | 82 | 268 | 1.0 | 6.0 | 0.00 | 0.00 | 0.00 | 76 | 1018.1 |
| 20260905170405 | 82 | 112 | 1.0 | 6.0 | 0.00 | 0.00 | 0.00 | 76 | 1018.1 |
| 20260905164905 | 82 | 220 | 2.0 | 3.0 | 0.00 | 0.00 | 0.00 | 75 | 1018.1 |
| 20260905164405 | 82 | 198 | 0.0 | 2.0 | 0.00 | 0.00 | 0.00 | 76 | 1018.1 |
| 20260905163905 | 82 | 250 | 2.0 | 3.0 | 0.00 | 0.00 | 0.00 | 75 | 1018.0 |
| 20260905163405 | 82 | 173 | 0.0 | 3.0 | 0.00 | 0.00 | 0.00 | 76 | 1018.1 |
| 20260905161905 | 82 | 232 | 1.0 | 2.0 | 0.00 | 0.00 | 0.00 | 75 | 1018.2 |
| 20260905160904 | 83 | 187 | 1.0 | 3.0 | 0.00 | 0.00 | 0.00 | 74 | 1018.2 |
| 20260905160405 | 83 | 227 | 1.0 | 3.0 | 0.00 | 0.00 | 0.00 | 74 | 1018.3 |
| 20260905154905 | 84 | 163 | 1.0 | 3.0 | 0.00 | 0.00 | 0.00 | 73 | 1018.3 |
| 20260905154405 | 84 | 157 | 1.0 | 3.0 | 0.00 | 0.00 | 0.00 | 73 | 1018.3 |
| 20260905153905 | 84 | 179 | 2.0 | 6.0 | 0.00 | 0.00 | 0.00 | 72 | 1018.3 |
| 20260905151905 | 84 | 229 | 2.0 | 6.0 | 0.00 | 0.00 | 0.00 | 73 | 1018.4 |
| 20260905151405 | 84 | 233 | 2.0 | 5.0 | 0.00 | 0.00 | 0.00 | 71 | 1018.4 |
| 20260905150904 | 85 | 173 | 1.0 | 5.0 | 0.00 | 0.00 | 0.00 | 71 | 1018.5 |
| 20260905150405 | 85 | 215 | 2.0 | 7.0 | 0.00 | 0.00 | 0.00 | 70 | 1018.5 |
| 20260905144905 | 84 | 188 | 2.0 | 6.0 | 0.00 | 0.00 | 0.00 | 71 | 1018.5 |
| 20260905143904 | 85 | 222 | 1.0 | 5.0 | 0.00 | 0.00 | 0.00 | 70 | 1018.5 |
| 20260905143404 | 84 | 211 | 2.0 | 6.0 | 0.00 | 0.00 | 0.00 | 70 | 1018.5 |
| 20260905141904 | 84 | 232 | 5.0 | 6.0 | 0.00 | 0.00 | 0.00 | 69 | 1018.6 |
| 20260905141413 | 86 | 219 | 3.0 | 7.0 | 0.00 | 0.00 | 0.00 | 67 | 1018.6 |
| 20260905140905 | 86 | 260 | 1.0 | 5.0 | 0.00 | 0.00 | 0.00 | 68 | 1018.6 |
| 20260905140405 | 86 | 171 | 1.0 | 3.0 | 0.00 | 0.00 | 0.00 | 68 | 1018.5 |
| 20260905134912 | 86 | 230 | 2.0 | 5.0 | 0.00 | 0.00 | 0.00 | 68 | 1018.7 |
| 20260905133912 | 86 | 184 | 3.0 | 7.0 | 0.00 | 0.00 | 0.00 | 68 | 1018.7 |
| 20260905133404 | 87 | 179 | 1.0 | 5.0 | 0.00 | 0.00 | 0.00 | 67 | 1018.7 |
| 20260905131404 | 86 | 212 | 2.0 | 5.0 | 0.00 | 0.00 | 0.00 | 67 | 1018.8 |
| 20260905130407 | 86 | 285 | 1.0 | 3.0 | 0.00 | 0.00 | 0.00 | 68 | 1018.8 |
| 20260905124904 | 85 | 183 | 2.0 | 5.0 | 0.00 | 0.00 | 0.00 | 69 | 1019.0 |
| 20260905124404 | 85 | 180 | 2.0 | 6.0 | 0.00 | 0.00 | 0.00 | 69 | 1019.0 |
| 20260905123905 | 86 | 188 | 1.0 | 5.0 | 0.00 | 0.00 | 0.00 | 69 | 1019.0 |
| 20260905123404 | 86 | 187 | 2.0 | 6.0 | 0.00 | 0.00 | 0.00 | 68 | 1019.2 |
| 20260905120905 | 86 | 203 | 1.0 | 6.0 | 0.00 | 0.00 | 0.00 | 68 | 1019.3 |
| 20260905120404 | 87 | 173 | 1.0 | 5.0 | 0.00 | 0.00 | 0.00 | 69 | 1019.3 |
| 20260905114905 | 85 | 193 | 2.0 | 5.0 | 0.00 | 0.00 | 0.00 | 70 | 1019.3 |
| 20260905114405 | 85 | 141 | 1.0 | 6.0 | 0.00 | 0.00 | 0.00 | 71 | 1019.3 |
| 20260905111404 | 85 | 191 | 1.0 | 5.0 | 0.00 | 0.00 | 0.00 | 70 | 1019.2 |
| 20260905110907 | 86 | 162 | 2.0 | 5.0 | 0.00 | 0.00 | 0.00 | 70 | 1019.3 |
| 20260905110404 | 85 | 200 | 1.0 | 7.0 | 0.00 | 0.00 | 0.00 | 70 | 1019.3 |
| 20260905104904 | 86 | 186 | 1.0 | 3.0 | 0.00 | 0.00 | 0.00 | 69 | 1019.3 |
| 20260905104404 | 85 | 115 | 2.0 | 3.0 | 0.00 | 0.00 | 0.00 | 68 | 1019.3 |
| 20260905103904 | 85 | 171 | 2.0 | 3.0 | 0.00 | 0.00 | 0.00 | 68 | 1019.3 |
| 20260905103407 | 85 | 118 | 2.0 | 5.0 | 0.00 | 0.00 | 0.00 | 69 | 1019.2 |
| 20260905101420 | 85 | 224 | 1.0 | 3.0 | 0.00 | 0.00 | 0.00 | 68 | 1019.3 |
| 20260905100908 | 85 | 177 | 1.0 | 3.0 | 0.00 | 0.00 | 0.00 | 69 | 1019.3 |
| 20260905094904 | 84 | 215 | 1.0 | 3.0 | 0.00 | 0.00 | 0.00 | 70 | 1019.3 |
| 20260905094404 | 84 | 259 | 0.0 | 3.0 | 0.00 | 0.00 | 0.00 | 72 | 1019.2 |
| 20260905093904 | 84 | 157 | 1.0 | 5.0 | 0.00 | 0.00 | 0.00 | 72 | 1019.3 |
| 20260905093407 | 83 | 171 | 1.0 | 7.0 | 0.00 | 0.00 | 0.00 | 72 | 1019.1 |
| 20260905091907 | 82 | 159 | 3.0 | 6.0 | 0.00 | 0.00 | 0.00 | 71 | 1019.1 |
| 20260905090906 | 82 | 164 | 2.0 | 6.0 | 0.00 | 0.00 | 0.00 | 73 | 1019.1 |
| 20260905090407 | 82 | 153 | 2.0 | 6.0 | 0.00 | 0.00 | 0.00 | 71 | 1019.0 |
| 20260905084410 | 81 | 166 | 1.0 | 3.0 | 0.00 | 0.00 | 0.00 | 73 | 1018.9 |
| 20260905083907 | 81 | 154 | 1.0 | 5.0 | 0.00 | 0.00 | 0.00 | 72 | 1019.0 |
| 20260905081406 | 80 | 185 | 1.0 | 3.0 | 0.00 | 0.00 | 0.00 | 75 | 1018.7 |
| 20260905080906 | 80 | 136 | 1.0 | 3.0 | 0.00 | 0.00 | 0.00 | 75 | 1018.8 |
| 20260905074906 | 79 | 185 | 0.0 | 1.0 | 0.00 | 0.00 | 0.00 | 78 | 1018.7 |
| 20260905074407 | 79 | 185 | 0.0 | 1.0 | 0.00 | 0.00 | 0.00 | 78 | 1018.7 |
| 20260905073906 | 79 | 185 | 0.0 | 2.0 | 0.00 | 0.00 | 0.00 | 78 | 1018.7 |
| 20260905073407 | 79 | 185 | 0.0 | 1.0 | 0.00 | 0.00 | 0.00 | 78 | 1018.7 |
| 20260905071407 | 78 | 192 | 0.0 | 1.0 | 0.00 | 0.00 | 0.00 | 78 | 1018.5 |
| 20260905070406 | 78 | 136 | 1.0 | 3.0 | 0.00 | 0.00 | 0.00 | 79 | 1018.5 |
| 20260905064906 | 77 | 197 | 0.0 | 1.0 | 0.00 | 0.00 | 0.00 | 81 | 1018.5 |
| 20260905064407 | 77 | 338 | 0.0 | 0.0 | 0.00 | 0.00 | 0.00 | 82 | 1018.6 |
| 20260905063906 | 76 | 338 | 0.0 | 0.0 | 0.00 | 0.00 | 0.00 | 82 | 1018.6 |
| 20260905063407 | 76 | 338 | 0.0 | 1.0 | 0.00 | 0.00 | 0.00 | 82 | 1018.4 |
| 20260905061906 | 76 | 338 | 0.0 | 0.0 | 0.00 | 0.00 | 0.00 | 83 | 1018.4 |
| 20260905061406 | 75 | 338 | 0.0 | 1.0 | 0.00 | 0.00 | 0.00 | 82 | 1018.4 |
| 20260905060907 | 75 | 33 | 0.0 | 1.0 | 0.00 | 0.00 | 0.00 | 82 | 1018.4 |
| 20260905060406 | 75 | 126 | 0.0 | 2.0 | 0.00 | 0.00 | 0.00 | 83 | 1018.3 |
| 20260905054906 | 75 | 78 | 0.0 | 2.0 | 0.00 | 0.00 | 0.00 | 82 | 1018.3 |
| 20260905054407 | 75 | 74 | 0.0 | 1.0 | 0.00 | 0.00 | 0.00 | 82 | 1018.3 |
| 20260905053406 | 75 | 58 | 0.0 | 2.0 | 0.00 | 0.00 | 0.00 | 83 | 1018.2 |
| 20260905051407 | 75 | 42 | 0.0 | 2.0 | 0.00 | 0.00 | 0.00 | 83 | 1018.0 |
| 20260905050406 | 75 | 86 | 1.0 | 2.0 | 0.00 | 0.00 | 0.00 | 82 | 1017.9 |
| 20260905044907 | 75 | 31 | 2.0 | 3.0 | 0.00 | 0.00 | 0.00 | 82 | 1017.8 |
| 20260905044407 | 75 | 5 | 1.0 | 3.0 | 0.00 | 0.00 | 0.00 | 83 | 1017.8 |
| 20260905043906 | 75 | 16 | 0.0 | 2.0 | 0.00 | 0.00 | 0.00 | 83 | 1017.9 |
| 20260905043406 | 74 | 103 | 0.0 | 3.0 | 0.00 | 0.00 | 0.00 | 82 | 1017.6 |
| 20260905041906 | 75 | 1 | 1.0 | 3.0 | 0.00 | 0.00 | 0.00 | 83 | 1017.8 |
| 20260905041407 | 74 | 6 | 1.0 | 3.0 | 0.00 | 0.00 | 0.00 | 83 | 1017.8 |
| 20260905040907 | 74 | 33 | 0.0 | 3.0 | 0.00 | 0.00 | 0.00 | 83 | 1017.8 |
| 20260905040407 | 74 | 45 | 1.0 | 5.0 | 0.00 | 0.00 | 0.00 | 83 | 1017.7 |
| 20260905034906 | 74 | 6 | 1.0 | 3.0 | 0.00 | 0.00 | 0.00 | 83 | 1017.9 |
| 20260905034407 | 74 | 14 | 2.0 | 3.0 | 0.00 | 0.00 | 0.00 | 83 | 1017.9 |
| 20260905033906 | 74 | 34 | 1.0 | 2.0 | 0.00 | 0.00 | 0.00 | 83 | 1017.8 |
| 20260905033406 | 74 | 37 | 1.0 | 3.0 | 0.00 | 0.00 | 0.00 | 83 | 1017.8 |
| 20260905031906 | 74 | 11 | 1.0 | 2.0 | 0.00 | 0.00 | 0.00 | 83 | 1018.0 |